Location: Cazavet
(43.0017°N, 1.0431°E)
Time: 08:31:32
(UTC+00:00)

Cosmos 2082 Rocket - Pass Details

Date: 18 January 2026
Orbit: 832 x 853 km, 71.0° (Epoch: 10 February)

Event Time Altitude Azimuth Distance (km) Brightness Sun altitude
Exits shadow 04:12:03 15° 16° (NNE) 2,108 4.4 -34.5°
Maximum altitude 04:14:37 20° 49° (NE) 1,847 4.4 -34.0°
Drops below altitude 10° 04:18:45 10° 96° (E) 2,473 5.4 -33.3°
Sets 04:21:51 0° 113° (ESE) 3,408 6.2 -32.7°
